Location: Ash Swamp
(41.5170°N, 74.6157°W)
Time: 01:36:18
(UTC+00:00)

Cosmos 1900 - Pass Details

Date: 14 July 2020
Orbit: 681 x 740 km, 66.1° (Epoch: 14 August)

Event Time Altitude Azimuth Distance (km) Brightness Sun altitude
Exits shadow 07:26:41 39° 218° (SW) 1,045 4.7 -18.8°
Maximum altitude 07:28:32 81° 301° (WNW) 711 4.3 -18.6°
Drops below altitude 10° 07:33:31 10° 29° (NNE) 2,186 8.1 -18.1°
Sets 07:35:54 0° 31° (NNE) 3,119 9.4 -17.8°
